Charlottesville, VA

11:44 PM EST on December 10, 2017 (GMT -0500)
Charlottesville-Albemarle

Weather History for KCHO - February, 2014

Change the Weather History Date:

Wednesday, February 19, 2014

  Actual Average Record
Temperature  
Mean Temperature 52 °F 39 °F  
Max Temperature 65 °F 50 °F 77 °F (1939)
Min Temperature 38 °F 28 °F 2 °F (1903)
Degree Days  
Heating Degree Days 13 26  
Month to date heating degree days 542 526  
Since 1 July heating degree days 3280 3186  
Cooling Degree Days 0 0  
Month to date cooling degree days 0 0  
Year to date cooling degree days 0 0  
Growing Degree Days 2 (Base 50)    
Moisture  
Dew Point 27 °F    
Average Humidity 52    
Maximum Humidity 79    
Minimum Humidity 24    
Precipitation  
Precipitation 0.01 in 0.11 in 0.81 in (2003)
Month to date precipitation 2.39 1.75  
Year to date precipitation 4.64 4.52  
Sea Level Pressure  
Sea Level Pressure 29.91 in    
Wind  
Wind Speed 8 mph (SW)    
Max Wind Speed 20 mph    
Max Gust Speed 34 mph    
Visibility 10 miles    
Events      
T = Trace of Precipitation, MM = Missing Value Source: NWS Daily Summary

Daily Weather History Graph

Daily Weather History Graph

Search for Another Location

Airport or City:

Trip Planner

Search our weather history database for the weather conditions in past years. The results will help you decide how hot, cold, wet, or windy it might be!

Date:

Astronomy

Feb. 19, 2014 Rise Set
Actual Time 6:59 AM EST 5:56 PM EST
Civil Twilight 6:32 AM EST 6:23 PM EST
Nautical Twilight 6:01 AM EST 6:54 PM EST
Astronomical Twilight 5:30 AM EST 7:24 PM EST
Moon 10:43 PM EST (2/19) 9:08 AM EST (2/19)
Length of Visible Light 11h 51m
Length of Day
10h 57m
Waning Gibbous, 80% of the Moon is Illuminated
Feb 19
Waning Gibbous
Feb 22
Last Quarter
Mar 1
New
Mar 8
First Quarter
Mar 16
Full

Hourly Weather History & Observations

Time (EST) Temp. Windchill Dew Point Humidity Pressure Visibility Wind Dir Wind Speed Gust Speed Precip Events Conditions
12:53 AM 41.0 °F 34.7 °F 19.9 °F 43% 30.04 in 10.0 mi South 10.4 mph - N/A   Clear
1:53 AM 39.0 °F 34.8 °F 19.9 °F 46% 30.01 in 10.0 mi South 5.8 mph - N/A   Clear
2:53 AM 41.0 °F 36.4 °F 19.9 °F 43% 29.99 in 10.0 mi South 6.9 mph - N/A   Clear
3:53 AM 39.9 °F 33.9 °F 21.9 °F 49% 29.95 in 10.0 mi South 9.2 mph - N/A   Scattered Clouds
4:53 AM 41.0 °F 38.0 °F 21.9 °F 47% 29.92 in 10.0 mi SSW 4.6 mph - N/A   Overcast
5:53 AM 41.0 °F 36.4 °F 23.0 °F 49% 29.88 in 10.0 mi SSW 6.9 mph - 0.00 in   Overcast
6:53 AM 41.0 °F 38.0 °F 25.0 °F 53% 29.86 in 10.0 mi SSW 4.6 mph - N/A   Mostly Cloudy
7:53 AM 41.0 °F 35.8 °F 26.1 °F 55% 29.86 in 10.0 mi SSW 8.1 mph - N/A   Overcast
8:53 AM 39.0 °F - 33.1 °F 79% 29.86 in 10.0 mi Calm Calm - 0.01 in   Overcast
9:53 AM 43.0 °F 40.3 °F 36.0 °F 76% 29.85 in 10.0 mi SSW 4.6 mph - 0.00 in   Overcast
10:53 AM 46.0 °F 41.0 °F 37.0 °F 71% 29.83 in 10.0 mi South 10.4 mph - N/A   Clear
11:53 AM 50.0 °F - 37.9 °F 63% 29.81 in 10.0 mi South 12.7 mph - N/A   Clear
12:53 PM 54.0 °F - 39.9 °F 59% 29.78 in 10.0 mi SSW 11.5 mph - N/A   Clear
1:53 PM 55.0 °F - 42.1 °F 62% 29.75 in 10.0 mi South 11.5 mph - N/A   Clear
2:53 PM 64.0 °F - 39.0 °F 40% 29.74 in 10.0 mi SW 8.1 mph - N/A   Scattered Clouds
3:53 PM 64.9 °F - 36.0 °F 34% 29.77 in 10.0 mi West 18.4 mph 34.5 mph N/A   Clear
4:53 PM 64.0 °F - 32.0 °F 30% 29.83 in 10.0 mi West 13.8 mph 27.6 mph N/A   Clear
5:53 PM 61.0 °F - 26.1 °F 26% 29.89 in 10.0 mi West 11.5 mph 23.0 mph N/A   Clear
6:53 PM 59.0 °F - 25.0 °F 27% 29.96 in 10.0 mi West 11.5 mph 20.7 mph N/A   Clear
7:53 PM 57.9 °F - 21.0 °F 24% 30.01 in 10.0 mi Variable 5.8 mph - N/A   Clear
8:53 PM 55.9 °F - 19.0 °F 24% 30.05 in 10.0 mi WNW 5.8 mph - N/A   Clear
9:53 PM 54.0 °F - 18.0 °F 24% 30.08 in 10.0 mi WNW 5.8 mph - N/A   Clear
10:53 PM 52.0 °F - 16.0 °F 24% 30.10 in 10.0 mi NNW 4.6 mph - N/A   Clear
11:53 PM 48.9 °F - 18.0 °F 29% 30.09 in 10.0 mi Calm Calm - N/A   Clear